Flag for Poland Weather past 2 weeks in Elbląg, Poland

Now
32 °F

Fog.


Feels Like: 32 °F
Forecast: 28 / 40 °F
Wind: 2 mph from West

Location: Hel

Current Time: Mar 5, 2015 at 1:49:50 AM

Latest Report: Mar 5, 2015 at 12:00 AM


Visibility: 3 mi

Pressure: 30.14 "Hg

Humidity: 96%

Dew point: 31 °F

Location of ElblągLocation

Historic Weather in Elbląg — Graph

°F

Elbląg temperature yesterday

Maximum temperature yesterday: 39 °F (at 1:00 PM)
Minimum temperature yesterday: 33 °F (at 11:00 PM)
Average temperature yesterday: 36 °F

Past Weeks' High & Low Weather Summary

 TemperatureHumidityPressure
High45 °F (Feb 19, 1:00 PM)100% (Feb 27, 5:00 AM)30.55 "Hg (Feb 27, 5:00 AM)
Low32 °F (Feb 18, 1:00 AM)56% (Feb 19, 6:00 PM)29.32 "Hg (Mar 2, 1:00 PM)
Average38 °F85%29.88 "Hg
* Reported Feb 18 1:00 AM — Midnight between Mar 4 and Mar 5, Elbląg, Weather by CustomWeather, © 2015

Note: Actual official high and low records may vary slightly from our data, if they occured in-between our weather recording intervals... More about our weather records

Advertising

Elbląg weather history for previous 24 hours

 ConditionsComfort  
Time TempWeatherWind HumidityBarometerVisibility
12:00 AM
Thu, Mar 5
32 °FFog.2 mph96%30.14 "Hg3 mi
11:00 PM
Wed, Mar 4
33 °FFog.2 mph95%30.13 "Hg3 mi
10:00 PM33 °FFog.2 mph95%30.12 "Hg4 mi
9:00 PM33 °FPassing clouds.2 mph93%30.10 "Hg6 mi
8:00 PM34 °FPassing clouds.2 mph92%30.10 "Hg9 mi
7:00 PM36 °FPassing clouds.3 mph86%30.09 "Hg12 mi
6:00 PM37 °FPassing clouds.3 mph87%30.07 "Hg12 mi
5:00 PM38 °FPartly sunny.3 mph83%30.05 "Hg12 mi
4:00 PM38 °FOvercast.3 mph87%30.03 "Hg12 mi
3:00 PM38 °FPartly sunny.5 mph81%30.00 "Hg12 mi
2:00 PM39 °FLow clouds.6 mph86%29.97 "Hg12 mi
1:00 PM39 °FPartly sunny.6 mph89%29.93 "Hg12 mi
12:00 PM37 °FLow clouds.5 mph95%29.91 "Hg7 mi
11:00 AM36 °FLow clouds.3 mph96%29.87 "Hg7 mi
10:00 AM35 °FLight mixture of precip. Low clouds.3 mph95%29.83 "Hg5 mi
9:00 AM35 °FSprinkles. Low clouds.5 mph93%29.81 "Hg5 mi
8:00 AM36 °FFog.3 mph95%29.79 "Hg5 mi
7:00 AM35 °FFog.3 mph96%29.78 "Hg2 mi
6:00 AM35 °FFog.3 mph97%29.78 "Hg2 mi
5:00 AM34 °FLow clouds.5 mph96%29.79 "Hg2 mi
3:00 AM35 °FSprinkles. Overcast.5 mph87%29.83 "Hg6 mi
2:00 AM36 °FOvercast.3 mph85%29.85 "Hg9 mi
1:00 AM36 °FOvercast.3 mph85%29.87 "Hg10 mi
Weather by CustomWeather, © 2015

See weather overviewHow to use our weather pages